This is the latest recevied weather packets stored in our database for station/object KT2UU-13. If no packets are shown the sender has not sent any weather packets the latest 10 day(s).
| Time | Temp. | Humidity | Pressure | Rain* | Wind** | Luminosity | Snow |
|---|---|---|---|---|---|---|---|
| 1777733129 | 14.44° C | 58% | 1014.9 hPa | 0 mm | - | - | - |
| 1777732826 | 14.44° C | 58% | 1015 hPa | 0 mm | - | - | - |
| 1777732522 | 14.44° C | 59% | 1015.1 hPa | 0 mm | - | - | - |
| 1777732220 | 14.44° C | 58% | 1015.1 hPa | 0 mm | - | - | - |
| 1777731917 | 14.44° C | 57% | 1015 hPa | 0 mm | - | - | - |
| 1777731614 | 14.44° C | 58% | 1014.9 hPa | 0 mm | - | - | - |
| 1777731311 | 15° C | 60% | 1014.7 hPa | 0 mm | - | - | - |
| 1777731009 | 14.44° C | 62% | 1014.7 hPa | 0 mm | - | - | - |
| 1777730707 | 14.44° C | 62% | 1014.5 hPa | 0 mm | - | - | - |
| 1777730402 | 13.89° C | 63% | 1014.6 hPa | 0 mm | - | - | - |
| 1777730098 | 13.33° C | 63% | 1014.7 hPa | 0 mm | - | - | - |
| 1777729795 | 13.33° C | 63% | 1014.7 hPa | 0 mm | - | - | - |
| 1777729492 | 13.33° C | 64% | 1014.5 hPa | 0 mm | - | - | - |
| 1777729189 | 13.33° C | 67% | 1014.5 hPa | 0 mm | - | - | - |
| 1777728885 | 13.33° C | 65% | 1014.4 hPa | 0 mm | - | - | - |
| 1777728583 | 13.33° C | 66% | 1014.7 hPa | 0 mm | - | - | - |
| 1777728280 | 12.78° C | 67% | 1014.6 hPa | 0 mm | - | - | - |
| 1777727977 | 12.78° C | 68% | 1014.4 hPa | 0 mm | - | - | - |
| 1777727673 | 12.22° C | 68% | 1014.4 hPa | 0 mm | - | - | - |
| 1777727371 | 12.22° C | 68% | 1014.5 hPa | 0 mm | - | - | - |
| 1777727068 | 12.22° C | 69% | 1014.4 hPa | 0 mm | - | - | - |
| 1777726765 | 12.22° C | 68% | 1014.5 hPa | 0 mm | - | - | - |
| 1777726463 | 12.22° C | 69% | 1014.3 hPa | 0 mm | - | - | - |
| 1777726159 | 11.67° C | 69% | 1014.3 hPa | 0 mm | - | - | - |
| 1777725856 | 11.67° C | 69% | 1014.3 hPa | 0 mm | - | - | - |
* Rain latest hour (hover to see other rain measurements)
** Current wind speed in m/s (hover to see current wind gust speed)